Location: Bessat
(45.8735°N, 1.9924°E)
Time: 23:13:19
(UTC+00:00)

Lacrosse 5 - Pass Details

Date: 11 May 2021
Orbit: 715 x 724 km, 57.0° (Epoch: 15 June)

Event Time Altitude Azimuth Distance (km) Brightness Sun altitude
Exits shadow 23:54:45 20° 94° (E) 1,642 3.7 -26.0°
Drops below altitude 10° 23:56:57 10° 72° (ENE) 2,202 4.6 -26.0°
Sets 23:59:42 0° 59° (ENE) 3,129 5.6 -25.9°
